Погода в Большом Китяке

Россия / Кировская область     56°20′29″N   50°44′31″E
темп.,
°C
ветер,
м/с
пор.,
м/с
влажн.,
%
обл.,
%
осадки,
мм/ч
давл.,
гПа
погр.,
м
23 апреля, пт
пт2300:00+5ю5128399 0.0 1025377
03:00+5ю4888100 0.0 1025286
06:00+4ю479195 0.0 1026285
09:00+6ю4584100 0.0 1026392
12:00+10ююв457030 0.0 1026742
15:00+12юв445971 0.0 10241267
18:00+10вюв36705 0.1 1023147
21:00+7в3884100 0.1 1023151
24 апреля, сб
сб2400:00+5в3991100 0.0 1021196
03:00+5всв4996100 0.0 1019240
06:00+5в4995100 0.0 1018442
09:00+6в4895100 0.7 1016708
12:00+6в4896100 1.4 1014479
15:00+7вюв5890100 1.8 1013563
18:00+6вюв4895100 0.1 1012399
21:00+6юв4897100 0.2 1010339
25 апреля, вс
вс2500:00+6юв5109799 0.0 1008343
03:00+6юв51194100 0.2 1006372
06:00+5ююз5996100 5.1 1004927
09:00+4зюз71292100 7.3 1005800
12:00+7юз8106899 0.5 10061242
15:00+9зюз8115081 1.1 10072152
18:00+5зюз7118167 0.5 1010856
21:00+4юз61384100 0.5 1011434
26 апреля, пн
пн2600:00+4зюз713765 0.0 1013545
03:00+1юз512860 0.0 1015313
06:00+3ююз5127932 0.0 1015402
09:00+6юз8167199 0.1 10151486
12:00+7юз8127786 0.2 10151137
15:00+9юз8135493 0.8 10141959
18:00+7юз51069100 0.0 1014654
21:00+4ююз2276100 0.0 101325
27 апреля, вт
вт2700:00+4ю1176100 0.0 101210
03:00+3юв1175100 0.0 101010
06:00+5вюв12745 0.0 100983
09:00+9ююв235861 0.0 1008880
12:00+12ю454929 1.0 10061600
15:00+12ю6741100 1.5 10042076
18:00+9ююв61063100 0.1 1003841
21:00+4юз8128154 1.8 1003906